Wind_Speed
17 15 11 8 6 6 8 10 12 13 15 16 18 19 20 21 22 23 24 25 26 26 27 29 29 30 33 32 34 34 34 31 30 30 32 36 42 41 40 43 40 48 47 41 53
17 14 11 7 6 5 4 5 6 8 9 11 12 13 14 16 17 19 21 23 25 26 27 29 31 33 33 34 35 36 35 33 32 32 32 31 39 42 36 44 44 44 45 34 49
16 15 12 10 8 7 6 4 2 0 2 3 4 5 7 8 9 12 16 17 19 22 24 27 30 32 34 35 36 37 35 36 34 35 36 35 36 42 38 46 43 41 39 31 36
13 11 9 7 6 4 3 3 2 2 3 5 6 8 10 11 9 14 16 19 21 23 25 27 29 31 32 34 35 37 37 39 38 38 37 39 41 43 46 48 45 44 48 51 41
11 9 7 6 6 5 4 3 2 2 4 6 8 9 10 10 10 13 15 17 18 20 24 28 30 32 33 33 35 36 37 38 39 39 41 42 43 45 45 46 45 42 54 57 40
11 9 7 5 3 2 3 5 6 7 8 9 11 12 14 12 13 15 15 15 17 18 18 20 25 30 29 30 34 34 37 38 39 41 41 44 46 46 41 42 47 51 53 55 57
12 10 8 7 6 4 2 3 6 8 9 11 12 14 16 15 14 18 17 18 17 17 17 20 20 21 25 29 31 34 36 36 36 37 39 41 43 44 41 43 43 44 52 59 53
13 11 9 5 4 4 4 2 2 1 4 4 7 9 10 14 15 15 17 19 20 20 19 19 18 20 22 24 27 31 33 35 31 35 37 39 45 40 41 47 46 46 48 51 49
11 10 9 8 8 5 3 2 3 4 4 6 6 6 6 9 11 12 15 17 19 21 21 22 22 21 21 22 23 27 27 30 30 31 33 32 45 41 42 46 47 48 47 49 48
10 10 10 10 8 8 8 7 6 6 7 7 8 8 9 9 12 10 12 15 17 18 21 24 25 25 26 27 25 25 28 29 32 28 22 25 36 38 44 46 43 45 46 48 51
12 12 13 13 12 11 10 11 10 10 10 11 11 11 9 11 11 14 14 15 15 17 19 21 22 21 24 27 29 31 31 33 33 33 34 38 39 41 46 46 41 42 43 47 48
12 13 15 16 16 15 15 15 15 14 13 14 15 14 14 13 13 13 15 17 17 18 20 22 21 23 24 26 28 29 32 32 30 30 37 41 45 46 45 46 48 45 42 44 46
12 14 14 15 17 19 20 19 19 19 16 18 17 17 16 16 16 17 17 18 19 19 22 23 21 25 27 28 30 29 30 34 34 34 37 41 49 51 51 54 53 46 42 42 45
15 15 15 16 17 17 18 20 22 22 21 17 18 17 17 18 18 21 21 22 22 22 24 25 23 26 28 30 31 34 30 36 38 42 45 41 50 46 45 47 45 42 40 41 39
18 17 17 16 17 19 18 19 20 21 22 20 16 18 19 21 22 23 22 23 25 27 29 23 26 26 29 27 31 37 31 36 40 44 46 43 46 43 39 39 35 25 34 38 36
23 21 20 18 18 20 20 20 19 19 22 24 23 18 17 20 22 27 28 27 28 29 31 31 28 31 29 30 28 30 38 41 42 45 52 43 36 45 37 29 26 34 32 30 35
24 25 21 20 18 20 21 20 18 18 19 18 22 28 23 23 28 28 31 34 31 34 31 31 30 29 29 31 30 35 34 41 49 49 53 40 34 45 28 31 37 30 35 31 43
28 27 24 22 22 20 19 19 18 20 21 27 30 28 26 25 26 29 30 32 31 32 39 43 37 28 27 26 29 39 43 38 50 52 51 49 51 46 30 34 25 29 26 30 39
28 29 27 25 23 20 19 18 18 21 24 29 27 29 28 26 32 32 30 33 33 32 39 42 40 32 29 34 37 43 42 46 49 52 51 53 43 53 25 34 35 45 42 31 39
31 28 30 25 22 20 19 18 19 22 26 26 23 26 29 28 31 34 34 35 38 38 41 42 46 37 34 34 38 48 50 50 52 56 61 59 60 52 45 39 44 36 34 34 37
30 29 29 26 22 20 20 20 21 23 27 27 27 30 30 32 31 30 31 32 35 38 36 38 43 39 38 39 38 36 43 48 52 49 52 53 42 44 37 38 34 38 39 38 41
32 31 31 29 25 24 23 23 23 22 26 26 29 30 31 31 32 30 30 31 32 34 36 33 39 42 44 43 44 43 49 46 48 52 57 43 37 24 39 36 33 35 43 45 41
36 35 32 30 30 27 27 24 26 26 27 28 27 30 31 31 34 29 28 27 31 32 33 35 41 45 45 42 41 41 46 47 50 45 49 51 57 45 41 36 34 32 30 37 41
37 37 37 34 35 32 27 27 27 27 27 31 29 29 31 30 29 33 27 27 29 29 33 40 44 45 48 45 39 39 36 37 50 53 50 42 36 24 22 32 35 29 32 40 45
37 37 36 37 35 35 33 30 29 29 29 31 29 31 32 30 29 28 27 26 26 30 36 43 44 44 42 36 30 30 23 20 23 35 40 36 38 37 23 25 26 32 32 37 40
37 36 36 33 36 35 35 34 34 31 31 27 32 30 30 30 31 24 26 28 29 30 34 38 41 35 24 19 21 23 19 16 11 13 23 28 28 30 33 29 28 39 44 40 33
34 35 33 32 34 37 36 38 37 35 27 29 32 31 29 26 27 26 27 28 31 33 33 28 22 20 14 19 19 16 17 15 16 18 22 22 22 22 24 27 32 38 38 38 28
Wind_Direction
106 112 116 124 137 162 185 200 214 222 228 234 240 244 246 248 249 249 249 248 248 246 246 247 246 245 247 246 246 245 246 247 251 253 247 237 242 244 244 247 252 248 247 242 252
89 98 101 102 99 106 130 161 191 211 221 229 236 242 245 249 252 256 256 252 253 254 251 249 249 249 247 249 250 250 250 250 249 248 245 237 236 234 248 250 256 260 249 243 258
69 77 78 73 72 69 64 63 71 124 231 238 246 252 256 258 264 259 259 259 256 255 255 255 255 252 249 249 251 250 250 256 251 247 244 240 237 230 231 252 257 264 268 248 246
62 63 65 63 53 47 50 51 25 332 298 286 280 277 276 277 274 270 269 268 264 263 260 259 258 258 256 253 251 250 249 250 252 256 252 247 244 240 233 240 250 258 263 260 247
69 63 55 53 50 38 21 360 336 299 278 274 272 270 269 273 277 277 276 275 272 268 263 260 259 258 257 257 257 257 254 254 252 252 254 256 252 248 246 246 233 245 256 264 259
53 66 69 57 53 8 321 303 293 287 283 280 276 274 274 273 272 273 275 277 276 271 271 267 263 263 263 259 257 256 257 256 255 255 255 257 256 257 259 253 252 237 251 265 269
64 60 62 71 67 55 347 292 285 282 280 275 272 272 273 275 260 269 268 272 272 273 271 271 277 272 263 262 261 260 262 262 260 260 259 262 259 259 260 257 254 248 256 261 265
45 52 53 62 84 103 119 142 193 299 294 305 303 294 288 277 275 264 261 266 266 267 268 270 268 269 268 266 264 263 263 263 265 265 264 269 258 258 259 259 254 255 254 257 265
9 17 22 30 19 14 2 293 255 246 282 252 268 267 292 291 290 284 276 267 264 266 267 268 267 266 268 267 265 267 268 266 258 260 263 267 263 258 256 258 257 255 254 258 258
341 341 344 345 347 344 339 336 321 308 300 303 291 293 269 275 271 265 278 282 279 269 266 266 266 266 267 267 266 263 266 264 261 254 248 248 267 271 266 260 258 258 257 257 255
309 310 314 317 315 312 312 312 309 308 309 306 297 299 287 285 267 268 268 269 268 275 275 269 269 268 266 266 266 264 261 258 264 266 237 248 252 255 248 261 264 264 262 255 256
311 301 298 298 299 300 299 297 297 296 301 304 303 300 291 291 280 281 275 276 271 264 264 269 272 271 266 265 266 266 269 271 266 264 247 247 249 260 254 264 270 265 266 265 261
309 303 301 297 293 291 291 292 293 293 290 293 290 295 280 294 287 289 281 281 277 276 269 269 270 268 270 270 271 270 274 276 273 265 259 254 258 257 261 256 269 274 266 256 257
299 300 300 294 296 295 292 292 291 291 292 291 292 290 284 294 292 294 293 290 285 280 275 279 275 269 268 271 277 277 274 276 276 272 271 266 269 267 270 272 273 273 268 256 248
296 297 298 297 294 292 293 290 293 298 297 295 292 281 280 290 288 279 281 286 287 285 282 284 279 277 275 286 285 283 280 279 279 277 278 276 279 280 280 276 275 275 269 270 267
291 289 293 295 299 297 292 294 296 298 298 296 301 292 289 290 285 287 287 283 284 284 282 284 275 274 273 273 276 286 289 289 285 283 276 286 284 278 279 275 251 256 254 242 254
288 286 287 289 291 292 293 292 295 293 291 285 291 302 302 306 304 303 301 300 298 296 288 279 274 271 277 285 287 288 283 280 277 275 283 291 278 286 294 284 274 283 267 251 238
293 286 285 284 289 291 289 289 293 283 277 276 277 296 297 293 287 283 282 283 283 286 285 289 289 280 262 242 259 268 267 267 273 276 277 273 272 294 281 269 281 291 244 220 231
304 291 283 279 285 291 295 290 286 279 282 281 288 287 285 283 284 284 279 275 284 278 275 284 285 284 272 262 248 258 266 275 274 270 271 267 263 279 261 268 268 272 273 256 253
306 300 287 280 281 289 289 291 287 280 280 289 286 278 281 280 277 281 284 285 279 281 286 288 286 285 280 268 264 260 270 265 268 276 275 279 274 276 267 273 258 259 262 251 247
300 301 291 279 280 281 284 283 284 286 289 292 291 291 286 287 285 282 279 277 278 280 281 283 283 288 284 286 282 273 268 267 270 268 277 275 272 280 277 272 259 251 255 254 265
295 296 292 287 280 277 275 284 286 287 280 288 292 292 288 287 290 290 283 281 280 283 286 281 285 289 288 287 288 287 281 276 261 263 273 284 274 260 280 260 260 250 254 258 258
289 291 287 284 283 279 279 279 286 290 297 288 290 292 291 292 293 290 286 280 282 282 284 285 287 291 291 288 287 284 278 266 265 265 268 273 272 281 268 266 264 258 252 259 259
290 287 287 286 285 281 279 276 280 287 292 292 296 294 289 289 294 295 287 284 284 288 287 286 290 293 295 299 298 293 289 265 260 258 265 274 272 301 301 271 264 266 270 263 260
290 288 287 287 282 281 281 280 281 283 284 292 294 294 297 297 293 287 291 291 287 288 289 293 295 297 299 301 297 296 308 300 265 269 265 273 270 271 282 271 277 263 270 274 262
289 284 285 282 279 282 284 283 284 288 291 292 293 297 297 294 297 294 289 292 293 291 291 291 296 297 304 296 293 302 303 288 290 295 275 274 277 269 265 268 271 267 269 269 264
291 289 285 282 278 281 281 283 284 286 290 294 295 296 297 295 289 292 295 295 298 297 299 299 301 300 311 292 296 310 297 281 280 284 291 275 279 272 265 273 272 268 267 266 261
Height
5763 5766 5769 5770 5771 5772 5773 5775 5777 5780 5781 5783 5785 5787 5789 5791 5793 5796 5798 5801 5803 5805 5806 5808 5810 5812 5813 5817 5818 5819 5821 5825 5829 5830 5835 5839 5836 5838 5841 5840 5844 5851 5851 5858 5850
5767 5768 5770 5771 5772 5773 5773 5774 5776 5777 5779 5781 5782 5783 5785 5787 5789 5791 5793 5794 5795 5797 5799 5801 5803 5804 5806 5808 5810 5811 5815 5820 5823 5823 5825 5830 5830 5832 5829 5832 5834 5837 5842 5851 5842
5771 5771 5772 5774 5774 5774 5775 5775 5776 5777 5778 5779 5781 5782 5783 5785 5787 5787 5788 5789 5790 5791 5793 5794 5795 5797 5800 5801 5802 5804 5809 5809 5813 5815 5817 5818 5822 5825 5824 5821 5824 5826 5829 5837 5836
5775 5775 5775 5774 5775 5775 5775 5775 5776 5777 5778 5778 5779 5780 5781 5782 5785 5784 5784 5784 5785 5786 5787 5787 5788 5789 5791 5794 5796 5798 5801 5802 5805 5805 5807 5810 5813 5815 5816 5818 5817 5816 5816 5819 5829
5776 5776 5776 5776 5775 5776 5776 5776 5776 5776 5776 5776 5776 5777 5778 5780 5780 5779 5780 5780 5780 5780 5781 5782 5783 5782 5784 5786 5788 5790 5792 5793 5796 5797 5798 5798 5801 5804 5811 5814 5811 5807 5807 5809 5819
5779 5777 5776 5777 5776 5775 5776 5776 5776 5775 5775 5774 5774 5774 5775 5777 5776 5776 5776 5776 5775 5775 5775 5775 5775 5776 5779 5779 5780 5782 5782 5785 5788 5790 5790 5789 5791 5793 5808 5807 5805 5803 5798 5803 5803
5782 5780 5778 5776 5776 5774 5773 5773 5773 5773 5772 5772 5771 5771 5771 5773 5773 5771 5772 5772 5772 5771 5771 5770 5771 5771 5772 5773 5774 5774 5776 5779 5782 5783 5783 5782 5783 5789 5794 5792 5794 5800 5796 5790 5797
5783 5781 5779 5778 5776 5775 5773 5772 5771 5771 5770 5769 5768 5768 5767 5766 5766 5767 5768 5767 5767 5767 5767 5766 5766 5766 5766 5767 5767 5767 5769 5770 5777 5774 5776 5773 5774 5784 5782 5778 5783 5785 5787 5788 5786
5783 5781 5779 5777 5776 5775 5773 5771 5770 5769 5768 5768 5767 5766 5765 5764 5763 5762 5762 5762 5762 5762 5762 5761 5761 5761 5761 5761 5761 5760 5761 5762 5765 5765 5764 5763 5764 5772 5770 5769 5772 5775 5778 5778 5777
5782 5780 5778 5777 5775 5773 5772 5770 5769 5767 5766 5765 5764 5764 5763 5762 5760 5760 5759 5758 5757 5757 5757 5756 5755 5755 5755 5754 5755 5754 5753 5753 5753 5755 5753 5751 5753 5755 5756 5758 5763 5763 5765 5765 5767
5780 5778 5776 5775 5772 5770 5769 5768 5768 5766 5762 5762 5761 5759 5758 5757 5756 5755 5755 5754 5753 5753 5751 5750 5750 5750 5749 5747 5747 5746 5745 5744 5745 5745 5744 5744 5744 5745 5746 5747 5751 5752 5753 5754 5757
5777 5774 5773 5771 5769 5767 5765 5763 5762 5762 5760 5758 5757 5756 5754 5753 5752 5751 5750 5749 5748 5747 5746 5746 5745 5744 5742 5741 5740 5739 5737 5738 5738 5739 5739 5737 5734 5735 5735 5734 5736 5740 5742 5743 5745
5773 5771 5769 5766 5765 5763 5761 5759 5757 5756 5756 5754 5753 5752 5750 5749 5747 5746 5745 5743 5742 5741 5740 5738 5740 5737 5736 5735 5733 5732 5731 5729 5728 5730 5728 5726 5724 5726 5728 5726 5727 5728 5729 5729 5730
5770 5767 5765 5762 5761 5758 5756 5755 5752 5750 5750 5751 5748 5746 5746 5744 5743 5739 5738 5739 5737 5735 5733 5733 5732 5730 5729 5727 5726 5723 5726 5721 5719 5716 5715 5717 5710 5717 5720 5718 5718 5718 5717 5717 5718
5765 5762 5760 5757 5756 5753 5753 5749 5747 5746 5744 5744 5744 5741 5739 5739 5737 5736 5735 5732 5730 5728 5726 5729 5725 5723 5721 5722 5718 5714 5716 5713 5710 5707 5706 5707 5704 5708 5709 5707 5708 5707 5707 5707 5709
5760 5757 5754 5752 5750 5748 5746 5744 5743 5743 5738 5734 5734 5733 5732 5732 5731 5727 5726 5725 5723 5721 5718 5718 5717 5714 5714 5712 5712 5710 5704 5701 5698 5696 5690 5700 5696 5693 5699 5696 5692 5693 5694 5695 5696
5754 5751 5749 5746 5744 5741 5740 5739 5739 5735 5734 5730 5726 5723 5725 5724 5720 5718 5715 5712 5713 5710 5709 5708 5709 5709 5708 5703 5702 5699 5698 5691 5686 5685 5680 5690 5684 5681 5691 5687 5682 5685 5681 5684 5683
5747 5745 5743 5740 5738 5736 5734 5734 5733 5730 5728 5723 5721 5720 5719 5719 5717 5713 5711 5708 5708 5704 5697 5694 5696 5700 5699 5695 5692 5689 5689 5686 5675 5676 5673 5677 5670 5676 5681 5678 5673 5675 5674 5673 5673
5740 5737 5736 5733 5731 5729 5728 5726 5725 5723 5721 5717 5714 5711 5713 5712 5707 5703 5702 5700 5699 5698 5691 5685 5684 5687 5688 5687 5686 5680 5679 5680 5669 5664 5656 5660 5664 5668 5672 5669 5666 5664 5670 5670 5666
5734 5731 5727 5725 5724 5723 5722 5720 5717 5715 5712 5710 5709 5707 5704 5703 5701 5697 5694 5693 5688 5684 5681 5677 5670 5677 5677 5677 5676 5673 5670 5666 5663 5653 5647 5649 5651 5654 5658 5655 5657 5654 5657 5656 5657
5727 5725 5721 5718 5716 5716 5715 5713 5710 5707 5703 5702 5699 5696 5695 5691 5690 5689 5687 5685 5680 5675 5675 5671 5665 5666 5666 5666 5665 5667 5658 5652 5648 5648 5635 5635 5640 5639 5643 5644 5647 5649 5644 5648 5647
5719 5717 5713 5711 5711 5707 5708 5705 5703 5702 5697 5695 5691 5688 5686 5684 5681 5679 5676 5673 5671 5667 5663 5662 5656 5653 5653 5653 5651 5648 5640 5637 5635 5634 5629 5626 5626 5632 5629 5631 5634 5637 5638 5639 5639
5710 5708 5705 5703 5702 5699 5698 5698 5695 5692 5690 5687 5684 5680 5677 5674 5669 5669 5668 5666 5662 5658 5653 5651 5647 5642 5641 5645 5643 5634 5629 5627 5623 5619 5618 5617 5617 5623 5620 5624 5625 5626 5626 5628 5627
5700 5698 5695 5696 5691 5691 5689 5688 5687 5683 5681 5677 5675 5672 5668 5666 5663 5658 5659 5657 5653 5651 5647 5641 5637 5634 5630 5628 5624 5619 5617 5614 5610 5607 5610 5605 5609 5614 5610 5612 5617 5616 5614 5615 5616
5689 5689 5686 5684 5684 5681 5680 5679 5677 5675 5672 5669 5667 5663 5658 5656 5655 5652 5650 5648 5646 5643 5637 5630 5626 5623 5619 5615 5612 5609 5607 5603 5600 5598 5598 5601 5600 5605 5606 5606 5603 5604 5604 5604 5606
5679 5678 5676 5676 5672 5671 5670 5669 5667 5666 5663 5663 5656 5656 5652 5648 5645 5645 5642 5639 5637 5635 5629 5624 5617 5613 5613 5609 5606 5605 5602 5599 5596 5594 5592 5590 5593 5593 5594 5595 5595 5593 5595 5595 5595
5669 5667 5666 5666 5664 5662 5661 5658 5657 5656 5657 5652 5649 5647 5644 5642 5638 5636 5633 5631 5627 5624 5619 5615 5611 5608 5607 5604 5603 5602 5597 5594 5593 5593 5590 5587 5586 5586 5587 5586 5586 5584 5582 5582 5584